{"data":{"norad_id":56024,"intl_designator":"2023-042AQ","name":"STARLINK-5772","alt_names":[],"object_type":"PAYLOAD","status":"ACTIVE","operator":null,"country":"US","launch_date":"2023-03-24","launch_site_code":"AFETR","launch_vehicle":null,"mission":null,"orbit_class":"UNKNOWN","rcs_meters":null,"size_class":null,"mass_kg":null,"dimensions":null,"purposes":["comms"],"wikipedia_slug":null,"has_3d_model":false,"image_url":null,"decayed_at":null,"tle_current":{"epoch":"2026-09-20T18:33:48.957984Z","epoch_age_seconds":82565,"freshness":"FRESH","line1":"1 56024U 23042AQ  26263.77348331 -.00002969  00000+0 -98497-4 0  9991","line2":"2 56024  43.0039  23.2692 0001096 271.6704  88.4022 15.27553527192878","mean_motion":15.27553527,"eccentricity":0.0001096,"inclination_deg":43.0039,"raan_deg":23.2692,"arg_perigee_deg":271.6704,"mean_anomaly_deg":88.4022,"bstar":-9.8497e-5,"rev_number":19287,"period_min":94.2683823871,"perigee_km":482.37637218586,"apogee_km":483.88036155428,"semimajor_km":6861.2653668701,"source":"CELESTRAK","updated_at":"2026-09-21T09:00:33.357431Z"}}}